Time,TemperatureF,DewpointF,PressureIn,WindDirection,WindDirectionDegrees,WindSpeedMPH,WindSpeedGustMPH,Humidity,HourlyPrecipIn,Conditions,Clouds,dailyrainin,SoftwareType,DateUTC
2013-02-25 00:02:00,20.0,11.0,30.30,South,180,0.0,0.0,68,0.00,,,0.10,,2013-02-25 06:02:00,
2013-02-25 00:21:00,20.0,11.0,30.30,South,180,0.0,0.0,68,0.00,,,0.10,,2013-02-25 06:21:00,
2013-02-25 00:31:00,20.0,11.0,30.30,South,180,0.0,0.0,67,0.00,,,0.10,,2013-02-25 06:31:00,
2013-02-25 00:52:00,19.0,10.0,30.30,South,180,0.0,0.0,66,0.00,,,0.10,,2013-02-25 06:52:00,
2013-02-25 01:01:00,18.0,9.0,30.30,South,180,0.0,0.0,66,0.00,,,0.10,,2013-02-25 07:01:00,
2013-02-25 01:11:00,19.0,10.0,30.30,South,180,0.0,0.0,67,0.00,,,0.10,,2013-02-25 07:11:00,
2013-02-25 01:21:00,19.0,10.0,30.30,South,180,0.0,0.0,67,0.00,,,0.10,,2013-02-25 07:21:00,
2013-02-25 01:31:00,19.0,10.0,30.30,South,180,0.0,0.0,67,0.00,,,0.10,,2013-02-25 07:31:00,
2013-02-25 01:52:00,19.0,10.0,30.30,South,180,0.0,0.0,68,0.00,,,0.10,,2013-02-25 07:52:00,
2013-02-25 02:01:00,19.0,10.0,30.30,South,180,0.0,0.0,68,0.00,,,0.10,,2013-02-25 08:01:00,
2013-02-25 02:11:00,20.0,11.0,30.30,South,180,0.0,0.0,69,0.00,,,0.10,,2013-02-25 08:11:00,
2013-02-25 02:21:00,20.0,11.0,30.30,South,180,0.0,0.0,69,0.00,,,0.10,,2013-02-25 08:21:00,
2013-02-25 02:31:00,20.0,11.0,30.30,South,180,0.0,0.0,69,0.00,,,0.10,,2013-02-25 08:31:00,
2013-02-25 02:52:00,19.0,10.0,30.30,South,180,0.0,0.0,68,0.00,,,0.10,,2013-02-25 08:52:00,
2013-02-25 03:01:00,19.0,10.0,30.30,South,180,0.0,0.0,68,0.00,,,0.10,,2013-02-25 09:01:00,
2013-02-25 03:21:00,19.0,11.0,30.29,South,180,0.0,0.0,69,0.00,,,0.10,,2013-02-25 09:21:00,
2013-02-25 03:31:00,19.0,11.0,30.29,South,180,0.0,0.0,69,0.00,,,0.10,,2013-02-25 09:31:00,
2013-02-25 03:52:00,20.0,11.0,30.30,South,180,0.0,0.0,69,0.00,,,0.10,,2013-02-25 09:52:00,
2013-02-25 04:01:00,20.0,12.0,30.29,South,180,0.0,0.0,70,0.00,,,0.10,,2013-02-25 10:01:00,
2013-02-25 04:11:00,20.0,12.0,30.30,South,180,0.0,0.0,70,0.00,,,0.10,,2013-02-25 10:11:00,
2013-02-25 04:21:00,20.0,12.0,30.30,South,180,0.0,0.0,70,0.00,,,0.10,,2013-02-25 10:21:00,
2013-02-25 04:31:00,19.0,11.0,30.31,South,180,0.0,0.0,69,0.00,,,0.10,,2013-02-25 10:31:00,
2013-02-25 04:52:00,19.0,10.0,30.31,South,180,0.0,0.0,68,0.00,,,0.10,,2013-02-25 10:52:00,
2013-02-25 05:01:00,19.0,11.0,30.32,South,180,0.0,0.0,69,0.00,,,0.10,,2013-02-25 11:01:00,
2013-02-25 05:21:00,20.0,12.0,30.31,ESE,112,0.0,0.0,70,0.00,,,0.10,,2013-02-25 11:21:00,
2013-02-25 05:32:00,21.0,13.0,30.31,ESE,112,0.0,0.0,71,0.00,,,0.10,,2013-02-25 11:32:00,
2013-02-25 05:42:00,21.0,13.0,30.31,ESE,112,0.0,0.0,71,0.00,,,0.10,,2013-02-25 11:42:00,
2013-02-25 05:52:00,20.0,12.0,30.32,ESE,112,0.0,0.0,70,0.00,,,0.10,,2013-02-25 11:52:00,
2013-02-25 06:02:00,20.0,12.0,30.32,ESE,112,0.0,0.0,70,0.00,,,0.10,,2013-02-25 12:02:00,
2013-02-25 06:11:00,20.0,12.0,30.32,ESE,112,0.0,0.0,70,0.00,,,0.10,,2013-02-25 12:11:00,
2013-02-25 06:21:00,19.0,11.0,30.33,ESE,112,0.0,0.0,70,0.00,,,0.10,,2013-02-25 12:21:00,
2013-02-25 06:32:00,19.0,11.0,30.33,ESE,112,0.0,0.0,69,0.00,,,0.10,,2013-02-25 12:32:00,
2013-02-25 06:55:00,18.0,10.0,30.34,ESE,112,0.0,0.0,69,0.00,,,0.10,,2013-02-25 12:55:00,
2013-02-25 07:02:00,19.0,11.0,30.34,ESE,112,0.0,0.0,70,0.00,,,0.10,,2013-02-25 13:02:00,
2013-02-25 07:22:00,20.0,12.0,30.34,ESE,112,0.0,0.0,70,0.00,,,0.10,,2013-02-25 13:22:00,
2013-02-25 07:32:00,20.0,12.0,30.33,ESE,112,0.0,0.0,71,0.00,,,0.10,,2013-02-25 13:32:00,
2013-02-25 07:42:00,20.0,12.0,30.33,ESE,112,0.0,0.0,71,0.00,,,0.10,,2013-02-25 13:42:00,
2013-02-25 07:52:00,23.0,16.0,30.33,East,90,0.0,0.0,73,0.00,,,0.10,,2013-02-25 13:52:00,
2013-02-25 08:03:00,24.0,17.0,30.32,ENE,68,0.0,0.0,74,0.00,,,0.10,,2013-02-25 14:03:00,
2013-02-25 08:17:00,24.0,17.0,30.32,ENE,68,0.0,0.0,74,0.00,,,0.10,,2013-02-25 14:17:00,
2013-02-25 08:32:00,28.0,20.0,30.32,East,85,0.0,2.0,73,0.00,,,0.10,,2013-02-25 14:32:00,
2013-02-25 08:42:00,28.0,20.0,30.32,East,85,0.0,2.0,73,0.00,,,0.10,,2013-02-25 14:42:00,
2013-02-25 08:52:00,31.0,22.0,30.32,ESE,112,0.0,0.0,68,0.00,,,0.10,,2013-02-25 14:52:00,
2013-02-25 09:02:00,32.0,22.0,30.32,ESE,118,0.0,0.0,66,0.00,,,0.10,,2013-02-25 15:02:00,
2013-02-25 09:11:00,32.0,22.0,30.32,ESE,118,0.0,0.0,66,0.00,,,0.10,,2013-02-25 15:11:00,
2013-02-25 09:21:00,35.0,23.0,30.32,East,90,0.0,2.0,61,0.00,,,0.10,,2013-02-25 15:21:00,
2013-02-25 09:32:00,35.0,21.0,30.31,East,98,0.0,0.0,57,0.00,,,0.10,,2013-02-25 15:32:00,
2013-02-25 09:41:00,35.0,21.0,30.31,East,98,0.0,0.0,57,0.00,,,0.10,,2013-02-25 15:41:00,
2013-02-25 09:52:00,37.0,22.0,30.31,ESE,112,1.0,1.0,54,0.00,,,0.10,,2013-02-25 15:52:00,
2013-02-25 10:01:00,37.0,21.0,30.32,East,79,0.0,5.0,53,0.00,,,0.10,,2013-02-25 16:01:00,
2013-02-25 10:11:00,37.0,21.0,30.32,East,79,0.0,5.0,53,0.00,,,0.10,,2013-02-25 16:11:00,
2013-02-25 10:21:00,38.0,22.0,30.32,ESE,112,5.0,7.0,51,0.00,,,0.08,,2013-02-25 16:21:00,
2013-02-25 10:31:00,39.0,22.0,30.31,East,97,0.0,3.0,51,0.00,,,0.08,,2013-02-25 16:31:00,
2013-02-25 10:42:00,39.0,22.0,30.31,East,97,0.0,3.0,51,0.00,,,0.08,,2013-02-25 16:42:00,
2013-02-25 10:52:00,39.0,21.0,30.30,South,180,6.0,6.0,49,0.00,,,0.08,,2013-02-25 16:52:00,
2013-02-25 11:01:00,40.0,22.0,30.30,ESE,122,2.0,6.0,48,0.00,,,0.06,,2013-02-25 17:01:00,
2013-02-25 11:11:00,40.0,22.0,30.30,ESE,122,2.0,6.0,48,0.00,,,0.06,,2013-02-25 17:11:00,
2013-02-25 11:21:00,40.0,22.0,30.30,East,92,0.0,2.0,48,0.00,,,0.06,,2013-02-25 17:21:00,
2013-02-25 11:31:00,41.0,22.0,30.29,ESE,107,0.0,0.0,46,0.00,,,0.06,,2013-02-25 17:31:00,
2013-02-25 11:41:00,41.0,22.0,30.29,ESE,107,0.0,0.0,46,0.00,,,0.06,,2013-02-25 17:41:00,
2013-02-25 11:52:00,42.0,21.0,30.29,SE,135,1.0,8.0,43,0.02,,,0.06,,2013-02-25 17:52:00,
2013-02-25 12:01:00,42.0,21.0,30.29,East,90,1.0,3.0,43,0.02,,,0.06,,2013-02-25 18:01:00,
2013-02-25 12:12:00,42.0,21.0,30.29,East,90,1.0,3.0,43,0.02,,,0.06,,2013-02-25 18:12:00,
2013-02-25 12:21:00,46.0,23.0,30.29,SSE,158,1.0,2.0,40,0.02,,,0.06,,2013-02-25 18:21:00,
2013-02-25 12:32:00,48.0,24.0,30.29,ENE,68,0.0,1.0,38,0.02,,,0.06,,2013-02-25 18:32:00,
2013-02-25 12:52:00,51.0,24.0,30.29,SSE,158,1.0,2.0,35,0.00,,,0.04,,2013-02-25 18:52:00,
2013-02-25 13:01:00,52.0,25.0,30.28,East,90,1.0,2.0,34,0.00,,,0.04,,2013-02-25 19:01:00,
2013-02-25 13:21:00,53.0,23.0,30.27,East,90,0.0,2.0,31,0.00,,,0.04,,2013-02-25 19:21:00,
2013-02-25 13:31:00,53.0,21.0,30.26,East,90,3.0,6.0,28,0.00,,,0.02,,2013-02-25 19:31:00,
2013-02-25 13:52:00,55.0,22.0,30.26,SE,132,5.0,6.0,27,0.00,,,0.02,,2013-02-25 19:52:00,
2013-02-25 14:01:00,55.0,22.0,30.26,NE,49,2.0,5.0,27,0.00,,,0.02,,2013-02-25 20:01:00,
2013-02-25 14:21:00,53.0,22.0,30.23,ENE,58,1.0,5.0,29,0.00,,,0.02,,2013-02-25 20:21:00,
2013-02-25 14:31:00,53.0,22.0,30.23,East,90,4.0,5.0,29,0.00,,,0.02,,2013-02-25 20:31:00,
2013-02-25 14:52:00,54.0,24.0,30.22,NE,51,0.0,2.0,31,0.00,,,0.02,,2013-02-25 20:52:00,
2013-02-25 15:01:00,51.0,20.0,30.22,ENE,68,4.0,9.0,29,0.00,,,0.02,,2013-02-25 21:01:00,
2013-02-25 15:21:00,52.0,23.0,30.23,East,92,1.0,7.0,32,0.00,,,0.02,,2013-02-25 21:21:00,
2013-02-25 15:31:00,53.0,23.0,30.23,ESE,105,0.0,6.0,31,0.00,,,0.02,,2013-02-25 21:31:00,
2013-02-25 15:52:00,55.0,23.0,30.24,NE,45,1.0,2.0,28,0.00,,,0.02,,2013-02-25 21:52:00,
2013-02-25 16:01:00,53.0,22.0,30.24,ENE,68,0.0,1.0,29,0.00,,,0.02,,2013-02-25 22:01:00,
2013-02-25 16:21:00,51.0,21.0,30.22,ENE,68,0.0,0.0,31,0.00,,,0.02,,2013-02-25 22:21:00,
2013-02-25 16:32:00,50.0,22.0,30.22,ENE,68,3.0,3.0,33,0.00,,,0.02,,2013-02-25 22:32:00,
2013-02-25 16:52:00,45.0,20.0,30.22,NNE,28,0.0,2.0,36,0.00,,,0.02,,2013-02-25 22:52:00,
2013-02-25 17:01:00,42.0,19.0,30.21,NE,52,0.0,2.0,39,0.00,,,0.02,,2013-02-25 23:01:00,
2013-02-25 17:22:00,38.0,21.0,30.20,NNE,23,0.0,0.0,49,0.00,,,0.02,,2013-02-25 23:22:00,
2013-02-25 17:31:00,37.0,21.0,30.20,NE,45,0.0,0.0,51,0.00,,,0.02,,2013-02-25 23:31:00,
2013-02-25 17:41:00,37.0,21.0,30.20,NE,45,0.0,0.0,51,0.00,,,0.02,,2013-02-25 23:41:00,
2013-02-25 17:52:00,36.0,21.0,30.20,NE,45,0.0,1.0,53,0.00,,,0.02,,2013-02-25 23:52:00,
2013-02-25 18:01:00,36.0,21.0,30.20,NE,55,0.0,0.0,54,0.00,,,0.02,,2013-02-26 00:01:00,
2013-02-25 18:12:00,36.0,21.0,30.20,NE,55,0.0,0.0,54,0.00,,,0.02,,2013-02-26 00:12:00,
2013-02-25 18:22:00,35.0,21.0,30.21,NE,45,0.0,0.0,56,0.00,,,0.02,,2013-02-26 00:22:00,
2013-02-25 18:32:00,35.0,21.0,30.20,NE,45,0.0,0.0,57,0.00,,,0.02,,2013-02-26 00:32:00,
2013-02-25 18:42:00,35.0,21.0,30.20,NE,45,0.0,0.0,57,0.00,,,0.02,,2013-02-26 00:42:00,
2013-02-25 18:52:00,35.0,22.0,30.19,NNE,22,0.0,2.0,58,0.00,,,0.02,,2013-02-26 00:52:00,
2013-02-25 19:02:00,35.0,22.0,30.18,ENE,63,0.0,6.0,58,0.00,,,0.02,,2013-02-26 01:02:00,
2013-02-25 19:11:00,35.0,22.0,30.18,ENE,63,0.0,6.0,58,0.00,,,0.02,,2013-02-26 01:11:00,
2013-02-25 19:21:00,35.0,22.0,30.18,NE,45,1.0,2.0,58,0.00,,,0.02,,2013-02-26 01:21:00,
2013-02-25 19:31:00,35.0,22.0,30.18,NE,45,0.0,2.0,58,0.00,,,0.02,,2013-02-26 01:31:00,
2013-02-25 19:41:00,35.0,22.0,30.18,NE,45,0.0,2.0,58,0.00,,,0.02,,2013-02-26 01:41:00,
2013-02-25 19:52:00,34.0,21.0,30.16,NE,45,1.0,2.0,58,0.00,,,0.02,,2013-02-26 01:52:00,
2013-02-25 20:01:00,34.0,21.0,30.16,ENE,60,0.0,0.0,59,0.00,,,0.02,,2013-02-26 02:01:00,
2013-02-25 20:11:00,34.0,21.0,30.16,ENE,60,0.0,0.0,59,0.00,,,0.02,,2013-02-26 02:11:00,
2013-02-25 20:21:00,34.0,22.0,30.16,NE,45,0.0,5.0,60,0.00,,,0.02,,2013-02-26 02:21:00,
2013-02-25 20:32:00,33.0,21.0,30.15,NE,45,0.0,0.0,61,0.00,,,0.02,,2013-02-26 02:32:00,
2013-02-25 20:41:00,33.0,21.0,30.15,NE,45,0.0,0.0,61,0.00,,,0.02,,2013-02-26 02:41:00,
2013-02-25 20:52:00,33.0,21.0,30.17,NE,45,2.0,2.0,61,0.00,,,0.02,,2013-02-26 02:52:00,
2013-02-25 21:01:00,33.0,21.0,30.18,NE,45,0.0,2.0,61,0.00,,,0.02,,2013-02-26 03:01:00,
2013-02-25 21:11:00,33.0,21.0,30.18,NE,45,0.0,2.0,61,0.00,,,0.02,,2013-02-26 03:11:00,
2013-02-25 21:21:00,33.0,21.0,30.18,ENE,68,0.0,0.0,61,0.00,,,0.02,,2013-02-26 03:21:00,
2013-02-25 21:32:00,33.0,21.0,30.18,ENE,68,0.0,0.0,61,0.00,,,0.02,,2013-02-26 03:32:00,
2013-02-25 21:41:00,33.0,21.0,30.18,ENE,68,0.0,0.0,61,0.00,,,0.02,,2013-02-26 03:41:00,
2013-02-25 21:52:00,33.0,21.0,30.18,ENE,68,0.0,0.0,61,0.00,,,0.02,,2013-02-26 03:52:00,
2013-02-25 23:12:00,33.0,22.0,30.13,NE,45,1.0,6.0,64,0.00,,,0.02,,2013-02-26 05:12:00,
2013-02-25 23:22:00,33.0,22.0,30.13,NE,45,1.0,6.0,64,0.00,,,0.02,,2013-02-26 05:22:00,
2013-02-25 23:32:00,33.0,22.0,30.14,NE,45,5.0,6.0,64,0.00,,,0.02,,2013-02-26 05:32:00,
2013-02-25 23:43:00,33.0,22.0,30.14,NE,45,5.0,6.0,64,0.00,,,0.02,,2013-02-26 05:43:00,
2013-02-25 23:52:00,33.0,22.0,30.12,ENE,68,0.0,6.0,64,0.00,,,0.02,,2013-02-26 05:52:00,